Regional Weather Roundup
Issued by NWS

Home | Current Version | Previous Version | Text Only | Print | Product List | Glossary Off
Versions: 1 2 3 4 5 6 7 8 9 10 11 12 13 14 15 16 17 18 19 20 21 22 23 24 25 26 27 28 29 30 31 32 33 34 35 36 37 38 39 40 41 42 43 44 45 46 47 48 49 50

000
ASUS43 KLSX 231407
RWRMO

WEATHER SUMMARY FOR MISSOURI
NATIONAL WEATHER SERVICE SPRINGFIELD MO
900 AM CDT THU OCT 23 2014

NOTE: "FAIR" INDICATES FEW OR NO CLOUDS BELOW 12,000 FEET WITH NO
       SIGNIFICANT WEATHER AND/OR OBSTRUCTIONS TO VISIBILITY.
       CURRENT SKY AND/OR WEATHER CONDITIONS ARE NOT AVAILABLE FOR
       CHILLICOTHE AND FARMINGTON.

MOZ001>031-035>038-043-044-053-054-231500-
...NORTHERN AND WESTERN MISSOURI...

CITY           SKY/WX    TMP DP  RH WIND       PRES   REMARKS
KANSAS CTY INT PTSUNNY   58  57  97 S8        30.08R
KANSAS C DTWN  CLOUDY    60  57  89 CALM      30.09R
LEE`S SUMMIT   CLOUDY    57  54  89 S7        30.10R
ST JOSEPH      MOSUNNY   57  56  96 S3        30.06S
CHILLICOTHE      N/A     55  51  86 S6        30.11R
KIRKSVILLE     CLOUDY    52  47  83 S8        30.11S

$$
MOZ066>068-077>081-088>096-101>105-231500-
...SOUTHWEST MISSOURI...

CITY           SKY/WX    TMP DP  RH WIND       PRES   REMARKS
SPRINGFIELD    CLOUDY    53  43  68 S12       30.18R
JOPLIN         CLOUDY    57  53  86 S8        30.17R

$$
MOZ032>034-039>042-045>050-055>058-069>072-231500-
...CENTRAL MISSOURI...

CITY           SKY/WX    TMP DP  RH WIND       PRES   REMARKS
COLUMBIA       CLOUDY    50  44  80 S9        30.16R
JEFFERSON CITY CLOUDY    50  43  77 E6        30.17S
ROLLA          CLOUDY    49  42  77 S10       30.18R
SEDALIA        CLOUDY    57  47  69 S12       30.14S
WHITEMAN AFB   PTSUNNY   56  49  78 S10       30.12R
OSAGE BEACH    CLOUDY    52  43  71 SE7       30.17S

$$
MOZ051-052-059>065-231500-
...EAST CENTRAL MISSOURI...

CITY           SKY/WX    TMP DP  RH WIND       PRES   REMARKS
ST LOUIS INTL  CLOUDY    52  41  66 S6        30.21S
SPIRIT OF STL  CLOUDY    48  44  86 CALM      30.20S
ST CHARLES     CLOUDY    47  44  90 E5        30.20S

$$
MOZ072>076-082>087-097>100-106>115-231500-
...SOUTH CENTRAL AND SOUTHEAST MISSOURI...

CITY           SKY/WX    TMP DP  RH WIND       PRES   REMARKS
CAPE GIRARDEAU MOSUNNY   45  43  93 CALM      30.25R FOG
FARMINGTON     MOSUNNY   39  39 100 CALM      30.23S
POPLAR BLUFF   PTSUNNY   48  42  80 CALM      30.23R
WEST PLAINS    CLOUDY    46  42  86 CALM      30.22R

$$



USA.gov is the U.S. government's official web portal to all federal, state and local government web resources and services.